Mexico, MO

4:15 PM CDT on April 26, 2017 (GMT -0500)
Near Lakeview Lake | | Change Station

Elev 817 ft 39.16 °N, 91.89 °W | Updated 0 second ago

Overcast
Overcast
49.8 °F
Feels Like 50 °F
N
2.0
Wind Variable Wind from NW
Gusts 6.0 mph

Today
High -- | Low -- °F
--% Chance of Precip.
Yesterday
High -- | Low -- °F
Precip. -- in
Pressure 29.49 in
Visibility 4.0 miles
Clouds Mostly Cloudy 600 ft
Mostly Cloudy 1000 ft
Overcast 1500 ft
Windchill 50 °F
Dew Point 49 °F
Humidity 96%
Rainfall 0.70 in
Snow Depth Not available.
6:15 AM 7:56 PM
New Moon, 0% visible
METAR KCOU 262054Z 34011KT 4SM -RA BR BKN006 BKN010 OVC015 09/09 A2949 RMK AO2 PRESFR SLP985 P0003 60008 T00940094 58025
Pressure 29.49 in
Visibility 4.0 miles
Clouds Mostly Cloudy 600 ft
Mostly Cloudy 1000 ft
Overcast 1500 ft
Windchill 50 °F
Dew Point 49 °F
Humidity 96%
Rainfall 0.70 in
Snow Depth Not available.
6:15 AM 7:56 PM
New Moon, 0% visible
METAR KCOU 262054Z 34011KT 4SM -RA BR BKN006 BKN010 OVC015 09/09 A2949 RMK AO2 PRESFR SLP985 P0003 60008 T00940094 58025

Get Severe Weather Alerts

Thanks for signing up!

Be on the lookout for a verification email in your inbox.

You'll start receiving the daily forecast at 8 AM.

×

10-Day Weather Forecast

Almanac

Astronomy

Apr. 26, 2017 Rise Set
Actual Time
Civil Twilight
Nautical Twilight
Astronomical Twilight
Moon
Length of Visible Light
Length of Day
Tomorrow will be .
, % of the Moon is Illuminated

Today's Extremes

State Highs State Lows

Community

WunderPhotos

WunderBlog® & News

Nearby

Air Quality

  Air Quality AQ Index Pollutant
Not available.

Snow Depth

Station Depth Elevation

Earthquake Activity

City Distance Mag. Time & Date
Minimum magnitude displayed is 2.5.

Coastal Water Temperatures

Place Temperature

Stations

Nearby Weather Stations

Station Location Temp. Windchill Dew Point Humidity Wind Precip. Elev Updated Type
                   

Watches & Warnings

There are currently no watches in effect.